Location: Barrio Pajares
(40.5500°N, 4.1667°W)
Time: 12:58:40
(UTC+00:00)

Okean 1 Rocket - Pass Details

Date: 18 April 2024
Orbit: 603 x 631 km, 82.5° (Epoch: 23 May)

Event Time Altitude Azimuth Distance (km) Brightness Sun altitude
Exits shadow 20:44:06 36° 156° (SSE) 991 3.6 -18.8°
Maximum altitude 20:45:40 59° 94° (E) 728 3.1 -19.1°
Drops below altitude 10° 20:50:05 10° 15° (NNE) 2,020 5.9 -19.8°
Sets 20:52:21 0° 12° (NNE) 2,934 6.8 -20.1°
